Frankfort, KY

10:55 AM EDT on September 26, 2017 (GMT -0400)
Capital City

Weather History for KFFT - June, 2013

Change the Weather History Date:

Saturday, June 1, 2013

  Actual Average Record
Temperature  
Mean Temperature 75 °F 69 °F  
Max Temperature 82 °F 80 °F 97 °F (1934)
Min Temperature 68 °F 57 °F 36 °F (1966)
Degree Days  
Heating Degree Days 0 1  
Month to date heating degree days 0 1  
Since 1 June heating degree days 0 1  
Since 1 July heating degree days 4779 4691  
Cooling Degree Days 10 5  
Month to date cooling degree days 10 5  
Year to date cooling degree days 129 104  
Since 1 June cooling degree days 10 5  
Growing Degree Days 25 (Base 50)    
Moisture  
Dew Point 67 °F    
Average Humidity 80    
Maximum Humidity 93    
Minimum Humidity 67    
Precipitation  
Precipitation 0.27 in 0.18 in 1.62 in (1998)
Month to date precipitation 0.27 0.18  
Year to date precipitation 18.94 19.65  
Sea Level Pressure  
Sea Level Pressure 29.89 in    
Wind  
Wind Speed 10 mph (SSW)    
Max Wind Speed 23 mph    
Max Gust Speed 32 mph    
Visibility 9 miles    
Events Rain , Thunderstorm    
T = Trace of Precipitation, MM = Missing Value Source: NWS Daily Summary

Daily Weather History Graph

Daily Weather History Graph

Search for Another Location

Airport or City:

Trip Planner

Search our weather history database for the weather conditions in past years. The results will help you decide how hot, cold, wet, or windy it might be!

Date:

Astronomy

Jun. 01, 2013 Rise Set
Actual Time 6:18 AM EDT 8:57 PM EDT
Civil Twilight 5:47 AM EDT 9:28 PM EDT
Nautical Twilight 5:08 AM EDT 10:06 PM EDT
Astronomical Twilight 4:25 AM EDT 10:50 PM EDT
Moon 2:07 AM EDT (6/1) 2:30 PM EDT (6/1)
Length of Visible Light 15h 41m
Length of Day
14h 39m
Last Quarter, 41% of the Moon is Illuminated
Jun 1
Last Quarter
Jun 8
New
Jun 16
First Quarter
Jun 23
Full
Jun 30
Last Quarter

Hourly Weather History & Observations

Time (EDT) Temp. Heat Index Dew Point Humidity Pressure Visibility Wind Dir Wind Speed Gust Speed Precip Events Conditions
12:53 AM 73.0 °F - 64.9 °F 76% 29.96 in 10.0 mi South 10.4 mph - N/A   Mostly Cloudy
1:53 AM 73.0 °F - 64.9 °F 76% 29.96 in 10.0 mi South 8.1 mph - N/A   Clear
2:53 AM 73.0 °F - 64.0 °F 73% 29.95 in 10.0 mi South 8.1 mph - N/A   Scattered Clouds
3:53 AM 72.0 °F - 64.0 °F 76% 29.93 in 10.0 mi South 8.1 mph - N/A   Overcast
4:53 AM 70.0 °F - 64.0 °F 81% 29.92 in 10.0 mi South 4.6 mph - N/A   Clear
5:53 AM 70.0 °F - 64.0 °F 81% 29.90 in 10.0 mi South 5.8 mph - N/A   Clear
6:53 AM 71.1 °F - 64.0 °F 78% 29.91 in 10.0 mi South 6.9 mph - N/A   Mostly Cloudy
7:53 AM 72.0 °F - 64.0 °F 76% 29.93 in 10.0 mi West 5.8 mph - N/A   Overcast
8:53 AM 72.0 °F - 64.9 °F 78% 29.92 in 10.0 mi WSW 4.6 mph - N/A   Scattered Clouds
9:53 AM 73.9 °F - 66.9 °F 79% 29.92 in 10.0 mi South 10.4 mph - N/A   Clear
10:53 AM 75.9 °F - 66.9 °F 74% 29.93 in 10.0 mi SSW 17.3 mph 28.8 mph N/A   Partly Cloudy
11:53 AM 75.9 °F - 66.0 °F 71% 29.94 in 10.0 mi SW 17.3 mph 26.5 mph N/A   Scattered Clouds
12:53 PM 75.0 °F - 64.9 °F 71% 29.93 in 10.0 mi SW 13.8 mph - N/A   Overcast
1:53 PM 77.0 °F - 66.0 °F 69% 29.92 in 10.0 mi SSW 11.5 mph - N/A   Mostly Cloudy
2:53 PM 79.0 °F - 68.0 °F 69% 29.90 in 10.0 mi SW 15.0 mph 20.7 mph N/A   Mostly Cloudy
3:53 PM 81.0 °F 83.8 °F 68.0 °F 65% 29.88 in 10.0 mi SW 17.3 mph 25.3 mph N/A   Mostly Cloudy
4:50 PM 75.2 °F - 69.8 °F 83% 29.88 in 1.5 mi WSW 9.2 mph - 0.10 in Rain , Thunderstorm Heavy Rain
4:53 PM 75.0 °F - 70.0 °F 84% 29.86 in 1.0 mi WSW 11.5 mph - 0.14 in Rain , Thunderstorm Heavy Rain
5:01 PM 73.4 °F - 71.6 °F 94% 29.89 in 0.8 mi SSW 13.8 mph - 0.11 in Rain , Thunderstorm Heavy Thunderstorms and Rain
5:06 PM 73.4 °F - 71.6 °F 94% 29.88 in 1.2 mi SW 8.1 mph 16.1 mph 0.12 in Rain , Thunderstorm Light Thunderstorms and Rain
5:11 PM 73.4 °F - 71.6 °F 94% 29.87 in 3.0 mi WSW 4.6 mph - 0.13 in Rain , Thunderstorm Light Thunderstorms and Rain
5:38 PM 73.4 °F - 71.6 °F 94% 29.87 in 10.0 mi WSW 4.6 mph - 0.13 in   Partly Cloudy
5:53 PM 73.9 °F - 72.0 °F 93% 29.84 in 10.0 mi SSW 4.6 mph - 0.13 in   Partly Cloudy
6:53 PM 73.0 °F - 70.0 °F 90% 29.84 in 10.0 mi South 9.2 mph - N/A   Partly Cloudy
7:53 PM 72.0 °F - 69.1 °F 91% 29.80 in 10.0 mi South 9.2 mph - N/A   Clear
8:53 PM 72.0 °F - 69.1 °F 91% 29.82 in 10.0 mi WSW 4.6 mph - N/A   Clear
9:53 PM 72.0 °F - 69.1 °F 91% 29.84 in 10.0 mi SSW 10.4 mph - N/A   Mostly Cloudy
10:53 PM 70.0 °F - 66.9 °F 90% 29.86 in 10.0 mi SW 16.1 mph 24.2 mph N/A   Clear
11:27 PM 69.8 °F - 66.2 °F 88% 29.88 in 10.0 mi SW 12.7 mph - N/A   Mostly Cloudy
11:53 PM 69.1 °F - 66.9 °F 93% 29.86 in 10.0 mi SSW 10.4 mph - N/A   Overcast